Regional Weather Roundup
Issued by NWS

Home | Current Version | Previous Version | Graphics & Text | Print | Product List | Glossary On
Versions: 1 2 3 4 5 6 7 8 9 10 11 12 13 14 15 16 17 18 19 20 21 22 23 24 25 26 27 28 29 30 31 32 33 34 35 36 37 38 39 40 41 42 43 44 45 46 47 48 49 50
000
ASUS43 KDMX 050507
RWRIA

WEATHER ROUNDUP FOR IOWA
NATIONAL WEATHER SERVICE DES MOINES IA
1200 AM CDT TUE MAY 05 2015

NOTE: "FAIR" INDICATES FEW OR NO CLOUDS BELOW 12,000 FEET WITH NO
SIGNIFICANT WEATHER AND/OR OBSTRUCTIONS TO VISIBILITY.

* - THESE STATIONS ARE NOT NWS STATIONS...THUS NOT UNDER NWS
QUALITY CONTROL.  THEY ALSO DO NOT REPORT WEATHER SUCH
AS PRECIPITATION OR FOG.

IAZ001>003-012>014-020>022-031>034-043>046-050600-
   NORTHWEST IOWA

CITY           SKY/WX    TMP DP  RH WIND       PRES   REMARKS
CARROLL *      CLOUDY    55  55 100 NE8       30.10F
CHEROKEE *     CLOUDY    55  50  82 CALM      30.14R
DENISON *      CLOUDY    55  55 100 NE6       30.09S
LE MARS *      PTCLDY    54  46  76 CALM      30.15S
ORANGE CITY *  CLEAR     55  41  58 CALM      30.14S
SHELDON *      CLEAR     54  39  58 E6        30.14R
SIOUX CITY     CLOUDY    59  48  67 CALM      30.13S
SPENCER        MOCLDY    53  42  66 NE7       30.15R
STORM LAKE *   MOCLDY    55  52  88 NE9       30.14R
$$

IAZ055>058-069>071-079>083-090>094-050600-
   SOUTHWEST IOWA

CITY           SKY/WX    TMP DP  RH WIND       PRES   REMARKS
ATLANTIC *     CLOUDY    59  59 100 VRB5      30.08F
AUDUBON *      LGT RAIN  57  54  88 NE9       30.09F
CLARINDA *     CLOUDY    64  64 100 SW5       30.11R FOG
COUNCIL BLFS * CLOUDY    59  59 100 E5        30.10S
CRESTON *      CLOUDY    63  63 100 E6        30.09S FOG
HARLAN  *      LGT RAIN  57  57 100 CALM      30.13S
LAMONI         CLOUDY    63  61  93 CALM      30.06S
RED OAK *      LGT RAIN  64  64 100 E7        30.09S
SHENANDOAH *   CLOUDY    64  64 100 S8        30.10R FOG
$$

IAZ047>049-059>061-072>074-084-050600-
   CENTRAL IOWA

CITY           SKY/WX    TMP DP  RH WIND       PRES   REMARKS
AMES           CLOUDY    60  56  86 E10       30.09R
ANKENY *       CLOUDY    63  63 100 E14       30.07F FOG
CHARITON *     LGT RAIN  61  59  94 SE6       30.06F
DES MOINES     LGT RAIN  64  61  90 E10       30.07F
GRINNELL*      LGT RAIN  61  61 100 E9        30.10S
KNOXVILLE *    LGT RAIN  63  59  88 E13G20    30.06F
MARSHALLTOWN   CLOUDY    61  59  93 E13       30.09S
PELLA *        HVY RAIN  63  63 100 SE10      30.11R
PERRY *        RAIN      59  57  94 N3        30.09S
$$

IAZ004>006-015-016-023>025-035-036-050600-
   NORTH CENTRAL IOWA

CITY           SKY/WX    TMP DP  RH WIND       PRES   REMARKS
ALGONA *       CLOUDY    59  41  51 NE5       30.15R
CLARION *      MOCLDY    59  48  67 E9        30.13R
ESTHERVILLE    MOCLDY    49  35  58 NE7       30.15R
FORT DODGE *   CLOUDY    57  50  77 NE5       30.13R
MASON CITY     CLOUDY    54  44  69 NE6       30.15R
FOREST CITY *  MOCLDY    55  39  54 NE5       30.14R
IOWA FALLS *   CLOUDY    59  52  77 NE6       30.12S
$$

IAZ007>011-017>019-026>030-037>042-050>054-066-050600-
   NORTHEAST IOWA

CITY           SKY/WX    TMP DP  RH WIND       PRES   REMARKS
CEDAR RAPIDS   LGT RAIN  63  63 100 E9        30.10F FOG
CHARLES CITY * CLOUDY    59  43  55 NE9       30.14R
CLINTON *      CLOUDY    63  59  88 E13       30.15S
DECORAH *      CLOUDY    61  39  44 NE8       30.14S
DUBUQUE        LGT RAIN  62  60  93 E12       30.13F FOG
MONTICELLO *   LGT RAIN  63  63 100 SE8       30.12S
OELWEIN *      CLOUDY    61  55  82 E9        30.13F
WATERLOO       CLOUDY    59  55  87 NE3       30.11F
$$

IAZ064-065-067-068-078-050600-
   EAST CENTRAL IOWA

CITY           SKY/WX    TMP DP  RH WIND       PRES   REMARKS
DAVENPORT      LGT RAIN  63  60  90 W30       30.12S FOG
IOWA CITY      HVY RAIN  63  62  97 NE15      30.11S FOG
MT. PLEASANT * LGT RAIN  63  63 100 S15G23    30.10R
MUSCATINE *    PTCLDY    64  63  94 NE5       30.08F FOG
QUAD CITIES    LGT RAIN  65  62  90 E10       30.10S FOG
$$

IAZ062-063-075>077-085>089-095>099-050600-
   SOUTHEAST IOWA

CITY           SKY/WX    TMP DP  RH WIND       PRES   REMARKS
BURLINGTON     RAIN      64  63  96 SW9       30.10R FOG
FAIRFIELD *    DRIZZLE   66  63  88 SW5       30.11R
FORT MADISON * HVY RAIN  63  61  94 S7G23     30.11R
KEOKUK *       LGT RAIN  64  63  94 NE9       30.08F
OSKALOOSA *    HVY RAIN  59  57  94 S3        30.14R
CENTERVILLE *  LGT RAIN  59  59 100 E6        30.09F
OTTUMWA        TSTM      60  59  96 N3        30.12R FOG
WASHINGTON *   HVY RAIN  64  64 100 N9G15     30.10R
$$

ABBREVIATIONS USED IN REMARKS
   TC - TEMPERATURES IN CELSIUS
  WCI - WIND CHILL INDEX
   HX - HEAT INDEX
  VSB - VISIBILITY
$$




USA.gov is the U.S. government's official web portal to all federal, state and local government web resources and services.